This is the latest recevied weather packets stored in our database for station/object KK7MLS-13. If no packets are shown the sender has not sent any weather packets the latest 10 day(s).
| Time | Temp. | Humidity | Pressure | Rain* | Wind** | Luminosity | Snow |
|---|---|---|---|---|---|---|---|
| 1777538953 | 11.67° C | 74% | 1019.8 hPa | 0 mm | - | 0 W/m² | - |
| 1777538649 | 12.22° C | 73% | 1019.8 hPa | 0 mm | - | 0 W/m² | - |
| 1777538343 | 12.78° C | 72% | 1019.9 hPa | 0 mm | - | 0 W/m² | - |
| 1777538039 | 12.78° C | 71% | 1020 hPa | 0 mm | - | 0 W/m² | - |
| 1777537735 | 13.33° C | 69% | 1019.9 hPa | 0 mm | - | 0 W/m² | - |
| 1777537432 | 13.89° C | 68% | 1019.9 hPa | 0 mm | - | 0 W/m² | - |
| 1777537128 | 13.89° C | 67% | 1019.8 hPa | 0 mm | - | 0 W/m² | - |
| 1777536824 | 13.89° C | 65% | 1019.9 hPa | 0 mm | - | 0 W/m² | - |
| 1777536522 | 13.33° C | 67% | 1019.9 hPa | 0 mm | - | 0 W/m² | - |
| 1777536218 | 13.33° C | 68% | 1019.8 hPa | 0 mm | - | 0 W/m² | - |
| 1777535914 | 12.78° C | 70% | 1019.9 hPa | 0 mm | - | 0 W/m² | - |
| 1777535611 | 12.78° C | 71% | 1019.9 hPa | 0 mm | - | 0 W/m² | - |
| 1777535308 | 12.78° C | 72% | 1020 hPa | 0 mm | - | 0 W/m² | - |
| 1777535005 | 12.78° C | 71% | 1019.9 hPa | 0 mm | - | 0 W/m² | - |
| 1777534701 | 12.78° C | 72% | 1020.1 hPa | 0 mm | - | 0 W/m² | - |
| 1777534398 | 12.78° C | 71% | 1020.1 hPa | 0 mm | - | 0 W/m² | - |
| 1777534096 | 12.78° C | 72% | 1019.8 hPa | 0 mm | - | 0 W/m² | - |
| 1777533793 | 12.78° C | 71% | 1019.9 hPa | 0 mm | - | 0 W/m² | - |
| 1777533490 | 12.78° C | 70% | 1020.1 hPa | 0 mm | - | 0 W/m² | - |
| 1777533185 | 12.78° C | 70% | 1020.1 hPa | 0 mm | - | 0 W/m² | - |
| 1777532883 | 12.78° C | 70% | 1020.1 hPa | 0 mm | - | 0 W/m² | - |
| 1777532579 | 12.78° C | 69% | 1019.9 hPa | 0 mm | - | 0 W/m² | - |
| 1777532276 | 12.78° C | 69% | 1020.1 hPa | 0 mm | - | 0 W/m² | - |
| 1777531972 | 13.33° C | 69% | 1020 hPa | 0 mm | - | 0 W/m² | - |
| 1777531668 | 13.33° C | 69% | 1020 hPa | 0 mm | - | 0 W/m² | - |
* Rain latest hour (hover to see other rain measurements)
** Current wind speed in m/s (hover to see current wind gust speed)